Regional Weather Roundup
Issued by NWS State College, PA

Home | Current Version | Previous Version | Text Only | Print | Product List | Glossary On
Versions: 1 2 3 4 5 6 7 8 9 10 11 12 13 14 15 16 17 18 19 20 21 22 23 24 25 26 27 28 29 30 31 32 33 34 35 36 37 38 39 40 41 42 43 44 45 46 47 48 49 50
000
ASUS41 KCTP 190903
RWRCTP

REGIONAL WEATHER ROUNDUP
NATIONAL WEATHER SERVICE STATE COLLEGE PA
400 AM EST TUE FEB 19 2019

Note: "fair" indicates few or no clouds below 12,000 feet with no
significant weather and/or obstructions to visibility.

* = STATION THAT DOES NOT REPORT PRECIPITATION /E.G. RAIN...SNOW...ETC/
    THUNDER OR FOG.

PAZ002>004-007>009-013>016-020>023-029>032-191000-
WESTERN PENNSYLVANIA

CITY           SKY/WX    TMP DP  RH WIND       PRES   REMARKS
ERIE           FAIR       6   2  83 CALM      30.56R
MEADVILLE      FAIR       9   6  88 N3        30.48S
FRANKLIN*      FAIR       7   4  87 N3        30.48
NEW CASTLE     FAIR       9   7  92 CALM      30.54R
BEAVER COUNTY  NOT AVBL
BUTLER*        FAIR      10   6  84 CALM      30.52R
PITTSBURGH INT FAIR      14  12  92 CALM      30.52R
PITTSBURGH     FAIR      17  13  84 CALM      30.50S
INDIANA*       CLEAR     14  12  92 W3        30.53R
LATROBE        FAIR      16  12  86 CALM      30.53S
WASHINGTON CO* FAIR      15  13  91 CALM      30.55R
$$

PAZ004>006-010>012-017>019-024>028-033>037-041-042-045-046-049>053-191000-
CENTRAL PENNSYLVANIA

CITY           SKY/WX    TMP DP  RH WIND       PRES   REMARKS
BRADFORD       FAIR       4   0  83 W5        30.39R WCI  -5
DUBOIS         CLOUDY    10   7  87 W7        30.43R WCI  -1
CLEARFIELD     FAIR      14   9  80 W3        30.45S
JOHNSTOWN      FAIR      13   8  81 W5        30.39S WCI   5
ALTOONA        FAIR      18   9  68 NW8       30.45R WCI   8
STATE COLLEGE  FAIR      17  10  72 CALM      30.47R
WILLIAMSPORT   FAIR      20  10  65 W7        30.49R WCI  11
SELINSGROVE    FAIR      23  11  60 NW10      30.49S WCI  12
FT INDIANTOWN  FAIR      25  12  58 NW6       30.47R
CAPITAL CITY   FAIR      25  13  60 W7        30.50R
HARRISBURG     FAIR      26  13  57 NW12      30.49R
YORK           FAIR      24  16  71 NW5       30.48R
$$

PAZ038>040-043-044-047-048-054-055-060>062-067>071-191000-
EASTERN PENNSYLVANIA

CITY           SKY/WX    TMP DP  RH WIND       PRES   REMARKS
SCRANTON       CLOUDY    20  11  68 NW8       30.43S WCI  10
MOUNT POCONO   CLOUDY    13   9  84 NW17G26   30.31F WCI  -4
ALLENTOWN      FAIR      25  12  58 NW8       30.46R
QUAKERTOWN*    SUNNY     23  12  63 VRB6      30.45S
READING        FAIR      25  15  66 N7        30.47R
LANCASTER      FAIR      26  17  68 NW7       30.47R
COATESVILLE    FAIR      25  14  63 N9        30.46R
POTTSTOWN      FAIR      24   8  50 N10       30.48R WCI  14
BLUE BELL      FAIR      27  12  54 CALM      30.48R
DOYLESTOWN     FAIR      24  13  62 N6        30.44R
WILLOW GROVE   NOT AVBL
NORTH PHILA    FAIR      27  14  58 N8        30.48R
PHILADELPHIA   FAIR      29  11  47 N13G22    30.48R
$$



USA.gov is the U.S. government's official web portal to all federal, state and local government web resources and services.